Location: Newark
(39.2833°N, 16.3333°E)
Time: 20:27:51
(UTC+00:00)

Envisat - Pass Details

Date: 21 October 2019
Orbit: 764 x 766 km, 98.1° (Epoch: 14 November)

Event Time Altitude Azimuth Distance (km) Brightness Sun altitude
Rises 18:31:18 0° 219° (SW) 3,220 6.6 -28.4°
Reaches altitude 10° 18:35:26 10° 252° (WSW) 2,301 6.2 -29.2°
Maximum altitude 18:37:01 11° 271° (W) 2,208 6.2 -29.5°
Drops below altitude 10° 18:38:36 10° 289° (WNW) 2,306 6.4 -29.8°
Sets 18:42:47 0° 323° (NW) 3,239 6.9 -30.6°
